Wetterdaten: Montag, 28.05.2018
Datum Zeit Temp. A. Aussen2m Boden Feuchte A. Feuchte 2 Luftdruck Regen Wind Richtung Richtung Sonnenschein
28.05.2018 00:00 18,9 C 18,9 C 10,8 C 74 % 78 % 1014,7 hPa 0,0 l/m 0,0 km/h (0 Bft) NW 320 0 min
28.05.2018 00:05 18,9 C 18,6 C 10,8 C 74 % 78 % 1014,7 hPa 0,0 l/m 0,0 km/h (0 Bft) NW 305 0 min
28.05.2018 00:10 18,6 C 18,5 C 10,8 C 76 % 79 % 1014,7 hPa 0,0 l/m 1,2 km/h (1 Bft) SO 130 0 min
28.05.2018 00:15 18,6 C 18,5 C 10,8 C 76 % 80 % 1014,7 hPa 0,0 l/m 2,4 km/h (1 Bft) O-SO 110 0 min
28.05.2018 00:20 18,5 C 18,5 C 10,8 C 77 % 80 % 1014,7 hPa 0,0 l/m 1,8 km/h (1 Bft) N-NO 30 0 min
28.05.2018 00:25 18,4 C 18,3 C 10,8 C 77 % 79 % 1014,7 hPa 0,0 l/m 0,0 km/h (0 Bft) NW 315 0 min
28.05.2018 00:30 17,8 C 17,7 C 10,8 C 78 % 80 % 1014,7 hPa 0,0 l/m 1,8 km/h (1 Bft) W 270 0 min
28.05.2018 00:35 17,5 C 17,6 C 10,8 C 79 % 81 % 1014,7 hPa 0,0 l/m 0,0 km/h (0 Bft) W 265 0 min
28.05.2018 00:40 17,4 C 17,4 C 10,8 C 80 % 82 % 1014,7 hPa 0,0 l/m 0,0 km/h (0 Bft) W 260 0 min
28.05.2018 00:45 17,4 C 17,4 C 10,8 C 80 % 82 % 1014,7 hPa 0,0 l/m 0,0 km/h (0 Bft) W 260 0 min
28.05.2018 00:50 17,4 C 17,3 C 10,8 C 80 % 82 % 1014,7 hPa 0,0 l/m 0,0 km/h (0 Bft) W 260 0 min
28.05.2018 00:55 17,4 C 17,1 C 10,8 C 80 % 83 % 1014,7 hPa 0,0 l/m 0,0 km/h (0 Bft) W 260 0 min
28.05.2018 01:00 17,4 C 17,3 C 10,8 C 80 % 84 % 1014,7 hPa 0,0 l/m 0,0 km/h (0 Bft) W 260 0 min
28.05.2018 01:05 17,4 C 17,3 C 10,8 C 80 % 84 % 1014,7 hPa 0,0 l/m 0,0 km/h (0 Bft) W 260 0 min
28.05.2018 01:10 17,2 C 17,2 C 10,8 C 83 % 84 % 1014,7 hPa 0,0 l/m 0,0 km/h (0 Bft) N-NO 25 0 min
28.05.2018 01:15 17,4 C 17,2 C 10,8 C 83 % 85 % 1014,7 hPa 0,0 l/m 0,0 km/h (0 Bft) O-SO 110 0 min
28.05.2018 01:20 17,4 C 17,3 C 10,8 C 83 % 85 % 1014,7 hPa 0,0 l/m 0,0 km/h (0 Bft) O 100 0 min
28.05.2018 01:25 17,4 C 17,4 C 10,8 C 83 % 85 % 1014,7 hPa 0,0 l/m 0,0 km/h (0 Bft) O 100 0 min
28.05.2018 01:30 17,4 C 17,4 C 10,8 C 83 % 86 % 1014,7 hPa 0,0 l/m 0,0 km/h (0 Bft) O 100 0 min
28.05.2018 01:35 17,4 C 17,4 C 10,8 C 83 % 86 % 1014,7 hPa 0,0 l/m 0,0 km/h (0 Bft) O 100 0 min
28.05.2018 01:40 17,4 C 17,5 C 10,8 C 83 % 85 % 1014,7 hPa 0,0 l/m 0,0 km/h (0 Bft) O 100 0 min
28.05.2018 01:45 17,4 C 17,5 C 10,8 C 83 % 85 % 1014,7 hPa 0,0 l/m 0,0 km/h (0 Bft) O 100 0 min
28.05.2018 01:50 17,4 C 17,5 C 10,8 C 83 % 85 % 1014,7 hPa 0,0 l/m 0,0 km/h (0 Bft) O 100 0 min
28.05.2018 01:55 17,4 C 17,5 C 10,8 C 83 % 85 % 1014,7 hPa 0,0 l/m 0,0 km/h (0 Bft) O 100 0 min
28.05.2018 02:00 17,4 C 17,5 C 10,8 C 83 % 85 % 1014,7 hPa 0,0 l/m 0,0 km/h (0 Bft) O 100 0 min
28.05.2018 02:05 17,4 C 17,5 C 10,8 C 83 % 85 % 1014,7 hPa 0,0 l/m 0,0 km/h (0 Bft) O 100 0 min
28.05.2018 02:10 17,4 C 17,4 C 10,8 C 82 % 85 % 1014,7 hPa 0,0 l/m 2,4 km/h (1 Bft) NO 35 0 min
28.05.2018 02:15 17,4 C 17,4 C 10,8 C 82 % 85 % 1014,7 hPa 0,0 l/m 2,4 km/h (1 Bft) NO 35 0 min
28.05.2018 02:20 17,3 C 17,4 C 10,8 C 83 % 85 % 1014,7 hPa 0,0 l/m 0,6 km/h (0 Bft) O 100 0 min
28.05.2018 02:25 17,2 C 17,3 C 10,8 C 83 % 85 % 1014,7 hPa 0,0 l/m 0,0 km/h (0 Bft) O 85 0 min
28.05.2018 02:30 17,1 C 17,3 C 10,8 C 83 % 85 % 1014,7 hPa 0,0 l/m 0,0 km/h (0 Bft) NO 55 0 min
28.05.2018 02:35 17,2 C 17,3 C 10,8 C 83 % 85 % 1014,7 hPa 0,0 l/m 1,2 km/h (1 Bft) NO 40 0 min
28.05.2018 02:40 17,2 C 17,3 C 10,8 C 83 % 85 % 1014,7 hPa 0,0 l/m 1,2 km/h (1 Bft) O 95 0 min
28.05.2018 02:45 17,2 C 17,2 C 10,8 C 83 % 85 % 1014,7 hPa 0,0 l/m 1,2 km/h (1 Bft) O 95 0 min
28.05.2018 02:50 17,0 C 17,1 C 10,8 C 84 % 85 % 1014,7 hPa 0,0 l/m 0,6 km/h (0 Bft) S 175 0 min
28.05.2018 02:55 17,1 C 17,1 C 10,8 C 84 % 85 % 1014,7 hPa 0,0 l/m 0,0 km/h (0 Bft) NO 50 0 min
28.05.2018 03:00 17,1 C 17,0 C 10,8 C 84 % 85 % 1014,7 hPa 0,0 l/m 0,0 km/h (0 Bft) O 80 0 min
28.05.2018 03:05 17,1 C 17,0 C 10,8 C 84 % 85 % 1014,7 hPa 0,0 l/m 0,0 km/h (0 Bft) O 80 0 min
28.05.2018 03:10 17,1 C 16,9 C 10,8 C 84 % 85 % 1014,7 hPa 0,0 l/m 0,0 km/h (0 Bft) NO 50 0 min
28.05.2018 03:15 17,1 C 16,9 C 10,8 C 84 % 86 % 1014,7 hPa 0,0 l/m 0,0 km/h (0 Bft) NO 40 0 min
28.05.2018 03:20 17,2 C 17,0 C 10,8 C 84 % 87 % 1014,7 hPa 0,0 l/m 1,2 km/h (1 Bft) N-NO 25 0 min
28.05.2018 03:25 17,1 C 17,0 C 10,8 C 84 % 87 % 1014,7 hPa 0,0 l/m 0,0 km/h (0 Bft) N-NW 330 0 min
28.05.2018 03:30 17,0 C 17,0 C 10,8 C 84 % 86 % 1014,7 hPa 0,0 l/m 0,0 km/h (0 Bft) N-NO 20 0 min
28.05.2018 03:35 17,0 C 16,9 C 10,8 C 84 % 86 % 1014,7 hPa 0,0 l/m 2,4 km/h (1 Bft) O-NO 60 0 min
28.05.2018 03:40 17,0 C 16,9 C 10,8 C 84 % 87 % 1014,7 hPa 0,0 l/m 2,4 km/h (1 Bft) O-NO 60 0 min
28.05.2018 03:45 17,0 C 17,0 C 10,8 C 84 % 87 % 1014,7 hPa 0,0 l/m 2,4 km/h (1 Bft) O-NO 60 0 min
28.05.2018 03:50 17,0 C 16,8 C 10,8 C 84 % 86 % 1014,7 hPa 0,0 l/m 2,4 km/h (1 Bft) O-NO 60 0 min
28.05.2018 03:55 17,0 C 16,6 C 10,8 C 84 % 85 % 1014,7 hPa 0,0 l/m 2,4 km/h (1 Bft) O-NO 60 0 min
28.05.2018 04:00 17,0 C 16,5 C 10,8 C 84 % 85 % 1014,7 hPa 0,0 l/m 2,4 km/h (1 Bft) O-NO 60 0 min
28.05.2018 04:05 17,0 C 16,4 C 10,8 C 84 % 86 % 1014,7 hPa 0,0 l/m 2,4 km/h (1 Bft) O-NO 60 0 min
28.05.2018 04:10 17,0 C 16,5 C 10,8 C 84 % 87 % 1014,7 hPa 0,0 l/m 2,4 km/h (1 Bft) O-NO 60 0 min
28.05.2018 04:15 17,0 C 16,5 C 10,8 C 84 % 87 % 1014,7 hPa 0,0 l/m 2,4 km/h (1 Bft) O-NO 60 0 min
28.05.2018 04:20 17,0 C 16,5 C 10,8 C 84 % 87 % 1014,7 hPa 0,0 l/m 2,4 km/h (1 Bft) O-NO 60 0 min
28.05.2018 04:25 17,0 C 16,5 C 10,8 C 84 % 87 % 1013,7 hPa 0,0 l/m 2,4 km/h (1 Bft) O-NO 60 0 min
28.05.2018 04:30 16,6 C 16,4 C 10,8 C 85 % 87 % 1013,7 hPa 0,0 l/m 0,0 km/h (0 Bft) N 5 0 min
28.05.2018 04:35 16,6 C 16,3 C 10,8 C 85 % 87 % 1013,7 hPa 0,0 l/m 0,0 km/h (0 Bft) N 5 0 min
28.05.2018 04:40 16,6 C 16,2 C 10,8 C 85 % 87 % 1013,7 hPa 0,0 l/m 0,0 km/h (0 Bft) N 5 0 min
28.05.2018 04:45 16,6 C 16,2 C 10,8 C 85 % 88 % 1013,7 hPa 0,0 l/m 0,0 km/h (0 Bft) N 5 0 min
28.05.2018 04:50 16,6 C 16,2 C 10,8 C 85 % 88 % 1013,7 hPa 0,0 l/m 0,0 km/h (0 Bft) N 5 0 min
28.05.2018 04:55 16,6 C 16,2 C 10,8 C 85 % 89 % 1014,7 hPa 0,0 l/m 0,0 km/h (0 Bft) N 5 0 min
28.05.2018 05:00 16,6 C 16,2 C 10,8 C 85 % 89 % 1014,7 hPa 0,0 l/m 0,0 km/h (0 Bft) N 5 0 min
28.05.2018 05:05 16,6 C 16,2 C 10,8 C 87 % 89 % 1014,7 hPa 0,0 l/m 5,4 km/h (2 Bft) O 90 0 min
28.05.2018 05:10 16,5 C 16,2 C 10,8 C 87 % 89 % 1013,7 hPa 0,0 l/m 2,4 km/h (1 Bft) O 95 0 min
28.05.2018 05:15 16,5 C 16,2 C 10,8 C 87 % 89 % 1013,7 hPa 0,0 l/m 2,4 km/h (1 Bft) O 95 0 min
28.05.2018 05:20 16,5 C 16,2 C 10,8 C 87 % 89 % 1013,7 hPa 0,0 l/m 2,4 km/h (1 Bft) O 95 0 min
28.05.2018 05:25 16,2 C 16,2 C 10,8 C 87 % 89 % 1014,7 hPa 0,0 l/m 0,0 km/h (0 Bft) O-NO 75 0 min
28.05.2018 05:30 16,2 C 16,2 C 10,8 C 87 % 89 % 1014,7 hPa 0,0 l/m 0,0 km/h (0 Bft) S-SW 205 0 min
28.05.2018 05:35 16,2 C 16,2 C 10,8 C 87 % 89 % 1014,7 hPa 0,0 l/m 0,0 km/h (0 Bft) S-SW 205 0 min
28.05.2018 05:40 16,2 C 16,1 C 10,8 C 87 % 88 % 1014,7 hPa 0,0 l/m 0,0 km/h (0 Bft) S-SW 205 0 min
28.05.2018 05:45 16,2 C 16,0 C 10,8 C 87 % 88 % 1014,7 hPa 0,0 l/m 0,0 km/h (0 Bft) S-SW 205 0 min
28.05.2018 05:50 16,2 C 16,0 C 10,8 C 87 % 88 % 1014,7 hPa 0,0 l/m 0,0 km/h (0 Bft) S-SW 205 0 min
28.05.2018 05:55 16,2 C 15,9 C 10,8 C 87 % 89 % 1014,7 hPa 0,0 l/m 0,0 km/h (0 Bft) S-SW 205 0 min
28.05.2018 06:00 16,2 C 16,0 C 10,8 C 87 % 89 % 1014,7 hPa 0,0 l/m 0,0 km/h (0 Bft) S-SW 205 0 min
28.05.2018 06:05 16,2 C 16,1 C 10,8 C 87 % 90 % 1014,7 hPa 0,0 l/m 0,0 km/h (0 Bft) S-SW 205 0 min
28.05.2018 06:10 16,2 C 16,2 C 10,8 C 87 % 91 % 1013,7 hPa 0,0 l/m 0,0 km/h (0 Bft) S-SW 205 0 min
28.05.2018 06:15 16,2 C 16,3 C 10,8 C 87 % 90 % 1013,7 hPa 0,0 l/m 0,0 km/h (0 Bft) S-SW 205 0 min
28.05.2018 06:20 16,2 C 16,4 C 10,8 C 87 % 90 % 1013,7 hPa 0,0 l/m 0,0 km/h (0 Bft) S-SW 205 0 min
28.05.2018 06:25 16,2 C 16,4 C 10,8 C 87 % 90 % 1014,7 hPa 0,0 l/m 0,0 km/h (0 Bft) S-SW 205 0 min
28.05.2018 06:30 16,2 C 16,4 C 10,8 C 87 % 90 % 1014,7 hPa 0,0 l/m 0,0 km/h (0 Bft) S-SW 205 0 min
28.05.2018 06:35 16,2 C 16,3 C 10,8 C 87 % 90 % 1014,7 hPa 0,0 l/m 0,0 km/h (0 Bft) S-SW 205 0 min
28.05.2018 06:40 16,2 C 16,2 C 10,8 C 87 % 89 % 1014,7 hPa 0,0 l/m 0,0 km/h (0 Bft) S-SW 205 0 min
28.05.2018 06:45 16,2 C 16,2 C 10,8 C 87 % 89 % 1014,7 hPa 0,0 l/m 0,0 km/h (0 Bft) S-SW 205 0 min
28.05.2018 06:50 16,2 C 16,2 C 10,8 C 87 % 90 % 1014,7 hPa 0,0 l/m 0,0 km/h (0 Bft) S-SW 205 0 min
28.05.2018 06:55 16,2 C 16,5 C 10,8 C 87 % 91 % 1014,7 hPa 0,0 l/m 0,0 km/h (0 Bft) S-SW 205 0 min
28.05.2018 07:00 16,2 C 16,8 C 10,8 C 87 % 91 % 1014,7 hPa 0,0 l/m 0,0 km/h (0 Bft) S-SW 205 0 min
28.05.2018 07:05 16,2 C 17,0 C 10,8 C 87 % 91 % 1014,7 hPa 0,0 l/m 0,0 km/h (0 Bft) S-SW 205 0 min
28.05.2018 07:10 16,2 C 17,3 C 10,8 C 87 % 91 % 1014,7 hPa 0,0 l/m 0,0 km/h (0 Bft) S-SW 205 0 min
28.05.2018 07:15 16,2 C 17,5 C 10,8 C 87 % 91 % 1014,7 hPa 0,0 l/m 0,0 km/h (0 Bft) S-SW 205 0 min
28.05.2018 07:20 16,2 C 17,7 C 10,8 C 87 % 91 % 1014,7 hPa 0,0 l/m 0,0 km/h (0 Bft) S-SW 205 0 min
28.05.2018 07:25 16,2 C 18,1 C 10,8 C 87 % 89 % 1014,7 hPa 0,0 l/m 0,0 km/h (0 Bft) S-SW 205 0 min
28.05.2018 07:30 16,2 C 18,2 C 10,8 C 87 % 88 % 1014,7 hPa 0,0 l/m 0,0 km/h (0 Bft) S-SW 205 0 min
28.05.2018 07:35 16,2 C 18,3 C 10,8 C 87 % 87 % 1014,7 hPa 0,0 l/m 0,0 km/h (0 Bft) S-SW 205 0 min
28.05.2018 07:40 16,2 C 18,4 C 10,8 C 87 % 86 % 1015,7 hPa 0,0 l/m 0,0 km/h (0 Bft) S-SW 205 0 min
28.05.2018 07:45 18,7 C 18,5 C 10,8 C 82 % 86 % 1015,7 hPa 0,0 l/m 9,7 km/h (2 Bft) O-SO 105 42 min
28.05.2018 07:50 18,7 C 18,5 C 10,8 C 82 % 87 % 1015,7 hPa 0,0 l/m 8,5 km/h (2 Bft) O-NO 70 4 min
28.05.2018 07:55 18,9 C 18,7 C 10,8 C 81 % 86 % 1014,7 hPa 0,0 l/m 9,7 km/h (2 Bft) SO 130 6 min
28.05.2018 08:00 19,0 C 18,8 C 10,8 C 81 % 86 % 1014,7 hPa 0,0 l/m 12,7 km/h (3 Bft) O-SO 105 4 min
28.05.2018 08:05 19,3 C 19,0 C 10,8 C 80 % 85 % 1014,7 hPa 0,0 l/m 10,3 km/h (2 Bft) O-SO 110 6 min
28.05.2018 08:10 19,5 C 19,2 C 10,8 C 80 % 85 % 1015,7 hPa 0,0 l/m 7,3 km/h (2 Bft) NO 50 4 min
28.05.2018 08:15 19,8 C 19,2 C 10,8 C 78 % 84 % 1015,7 hPa 0,0 l/m 8,5 km/h (2 Bft) S 180 6 min
28.05.2018 08:20 20,2 C 19,5 C 10,8 C 77 % 83 % 1015,7 hPa 0,0 l/m 8,5 km/h (2 Bft) SW 225 5 min
28.05.2018 08:25 20,3 C 19,6 C 10,8 C 76 % 83 % 1015,7 hPa 0,0 l/m 6,7 km/h (2 Bft) SO 140 5 min
28.05.2018 08:30 20,5 C 19,8 C 10,8 C 75 % 82 % 1015,7 hPa 0,0 l/m 7,3 km/h (2 Bft) SO 135 3 min
28.05.2018 08:35 20,7 C 20,0 C 10,8 C 74 % 82 % 1015,7 hPa 0,0 l/m 8,5 km/h (2 Bft) O 100 5 min
28.05.2018 08:40 20,7 C 20,2 C 10,8 C 75 % 81 % 1015,7 hPa 0,0 l/m 7,3 km/h (2 Bft) O-NO 75 1 min
28.05.2018 08:45 21,1 C 20,5 C 10,8 C 74 % 81 % 1015,7 hPa 0,0 l/m 5,4 km/h (2 Bft) O-SO 115 0 min
28.05.2018 08:50 21,4 C 20,7 C 10,8 C 71 % 79 % 1015,7 hPa 0,0 l/m 6,7 km/h (2 Bft) O-SO 110 0 min
28.05.2018 08:55 21,9 C 20,9 C 10,8 C 70 % 78 % 1015,7 hPa 0,0 l/m 2,4 km/h (1 Bft) O-NO 60 0 min
28.05.2018 09:00 22,6 C 21,2 C 10,8 C 67 % 77 % 1015,6 hPa 0,0 l/m 4,2 km/h (1 Bft) S-SO 155 0 min
28.05.2018 09:05 22,7 C 21,4 C 10,8 C 67 % 77 % 1015,6 hPa 0,0 l/m 8,5 km/h (2 Bft) S-SO 160 2 min
28.05.2018 09:10 22,8 C 21,6 C 10,8 C 67 % 76 % 1015,6 hPa 0,0 l/m 4,2 km/h (1 Bft) O-SO 115 4 min
28.05.2018 09:15 22,9 C 21,8 C 10,8 C 66 % 76 % 1015,6 hPa 0,0 l/m 8,5 km/h (2 Bft) O-SO 110 5 min
28.05.2018 09:20 23,0 C 22,0 C 10,8 C 66 % 75 % 1015,6 hPa 0,0 l/m 9,1 km/h (2 Bft) SO 135 5 min
28.05.2018 09:25 23,0 C 22,2 C 10,8 C 66 % 74 % 1015,6 hPa 0,0 l/m 9,7 km/h (2 Bft) S-SO 165 6 min
28.05.2018 09:30 23,4 C 22,5 C 10,8 C 64 % 73 % 1015,6 hPa 0,0 l/m 11,5 km/h (2 Bft) SO 145 5 min
28.05.2018 09:35 23,5 C 22,7 C 10,8 C 63 % 72 % 1015,6 hPa 0,0 l/m 10,3 km/h (2 Bft) O 90 5 min
28.05.2018 09:40 23,7 C 22,9 C 10,8 C 64 % 72 % 1015,6 hPa 0,0 l/m 9,1 km/h (2 Bft) O-SO 105 5 min
28.05.2018 09:45 23,9 C 23,0 C 10,8 C 63 % 72 % 1015,6 hPa 0,0 l/m 9,1 km/h (2 Bft) O-SO 110 5 min
28.05.2018 09:50 24,0 C 23,2 C 10,8 C 63 % 71 % 1015,6 hPa 0,0 l/m 7,9 km/h (2 Bft) SO 135 5 min
28.05.2018 09:55 24,1 C 23,4 C 10,8 C 62 % 70 % 1015,6 hPa 0,0 l/m 7,9 km/h (2 Bft) O-SO 105 3 min
28.05.2018 10:00 24,4 C 23,6 C 10,8 C 61 % 70 % 1015,6 hPa 0,0 l/m 10,3 km/h (2 Bft) O-SO 105 7 min
28.05.2018 10:05 24,7 C 23,8 C 10,8 C 60 % 68 % 1015,6 hPa 0,0 l/m 10,9 km/h (2 Bft) SW 220 5 min
28.05.2018 10:10 24,7 C 24,0 C 10,8 C 59 % 67 % 1015,6 hPa 0,0 l/m 10,9 km/h (2 Bft) S-SO 155 5 min
28.05.2018 10:15 24,9 C 24,1 C 10,8 C 60 % 68 % 1015,6 hPa 0,0 l/m 8,5 km/h (2 Bft) S-SO 160 3 min
28.05.2018 10:20 25,1 C 24,3 C 10,8 C 58 % 67 % 1015,6 hPa 0,0 l/m 9,7 km/h (2 Bft) SO 145 5 min
28.05.2018 10:25 25,2 C 24,4 C 10,8 C 58 % 67 % 1015,6 hPa 0,0 l/m 10,9 km/h (2 Bft) SO 125 7 min
28.05.2018 10:30 25,3 C 24,6 C 10,8 C 58 % 65 % 1015,6 hPa 0,0 l/m 10,3 km/h (2 Bft) SO 135 3 min
28.05.2018 10:35 25,7 C 24,8 C 10,8 C 57 % 67 % 1015,6 hPa 0,0 l/m 6,1 km/h (2 Bft) N-NO 25 7 min
28.05.2018 10:40 26,0 C 25,0 C 10,8 C 56 % 64 % 1015,6 hPa 0,0 l/m 5,4 km/h (2 Bft) SO 130 3 min
28.05.2018 10:45 26,0 C 25,2 C 10,8 C 54 % 64 % 1015,6 hPa 0,0 l/m 9,7 km/h (2 Bft) SO 125 8 min
28.05.2018 10:50 26,4 C 25,4 C 10,8 C 53 % 61 % 1015,6 hPa 0,0 l/m 11,5 km/h (2 Bft) N-NO 30 3 min
28.05.2018 10:55 26,4 C 25,6 C 10,8 C 52 % 61 % 1015,6 hPa 0,0 l/m 8,5 km/h (2 Bft) NO 55 5 min
28.05.2018 11:00 26,2 C 25,6 C 10,8 C 53 % 61 % 1015,6 hPa 0,0 l/m 15,7 km/h (3 Bft) O 100 4 min
28.05.2018 11:05 26,5 C 25,8 C 10,8 C 50 % 59 % 1015,6 hPa 0,0 l/m 12,1 km/h (2 Bft) O 100 6 min
28.05.2018 11:10 26,8 C 26,0 C 10,8 C 50 % 60 % 1015,6 hPa 0,0 l/m 8,5 km/h (2 Bft) O-SO 110 5 min
28.05.2018 11:15 27,2 C 26,2 C 10,8 C 50 % 59 % 1015,6 hPa 0,0 l/m 10,3 km/h (2 Bft) O 85 6 min
28.05.2018 11:20 27,5 C 26,4 C 10,8 C 49 % 57 % 1015,6 hPa 0,0 l/m 10,9 km/h (2 Bft) S-SW 205 4 min
28.05.2018 11:25 27,5 C 26,4 C 10,8 C 49 % 57 % 1015,6 hPa 0,0 l/m 12,1 km/h (2 Bft) O-NO 75 5 min
28.05.2018 11:30 27,7 C 26,6 C 10,8 C 48 % 58 % 1015,6 hPa 0,0 l/m 6,7 km/h (2 Bft) O-SO 110 5 min
28.05.2018 11:35 27,9 C 26,8 C 10,8 C 46 % 53 % 1015,6 hPa 0,0 l/m 9,7 km/h (2 Bft) SO 135 6 min
28.05.2018 11:40 28,1 C 26,8 C 10,8 C 44 % 53 % 1014,6 hPa 0,0 l/m 10,9 km/h (2 Bft) N-NO 30 5 min
28.05.2018 11:45 28,2 C 27,0 C 10,8 C 43 % 51 % 1014,6 hPa 0,0 l/m 13,3 km/h (3 Bft) NO 35 4 min
28.05.2018 11:50 28,0 C 27,1 C 10,8 C 44 % 51 % 1014,6 hPa 0,0 l/m 10,3 km/h (2 Bft) NO 55 6 min
28.05.2018 11:55 28,2 C 27,4 C 10,8 C 44 % 52 % 1015,6 hPa 0,0 l/m 7,3 km/h (2 Bft) S-SO 165 4 min
28.05.2018 12:00 28,2 C 27,4 C 10,8 C 44 % 52 % 1015,6 hPa 0,0 l/m 9,1 km/h (2 Bft) NO 50 6 min
28.05.2018 12:05 28,8 C 27,6 C 10,8 C 43 % 54 % 1015,6 hPa 0,0 l/m 12,7 km/h (3 Bft) N-NO 30 5 min
28.05.2018 12:10 28,5 C 27,9 C 10,8 C 42 % 51 % 1015,6 hPa 0,0 l/m 10,9 km/h (2 Bft) N 10 5 min
28.05.2018 12:15 28,6 C 28,0 C 10,8 C 43 % 50 % 1015,6 hPa 0,0 l/m 7,9 km/h (2 Bft) N-NO 25 5 min
28.05.2018 12:20 28,3 C 28,0 C 10,8 C 43 % 50 % 1015,6 hPa 0,0 l/m 12,1 km/h (2 Bft) N-NO 20 5 min
28.05.2018 12:25 29,2 C 28,1 C 10,8 C 41 % 47 % 1015,6 hPa 0,0 l/m 7,3 km/h (2 Bft) W 270 5 min
28.05.2018 12:30 29,3 C 28,2 C 10,8 C 40 % 46 % 1015,6 hPa 0,0 l/m 7,3 km/h (2 Bft) SW 235 5 min
28.05.2018 12:35 28,9 C 28,5 C 10,8 C 39 % 46 % 1015,6 hPa 0,0 l/m 15,1 km/h (3 Bft) NO 50 5 min
28.05.2018 12:40 29,5 C 28,5 C 10,8 C 39 % 45 % 1014,6 hPa 0,0 l/m 12,1 km/h (2 Bft) N 0 5 min
28.05.2018 12:45 29,5 C 28,8 C 10,8 C 40 % 46 % 1014,6 hPa 0,0 l/m 12,7 km/h (3 Bft) O-NO 70 5 min
28.05.2018 12:50 29,5 C 28,7 C 10,8 C 40 % 45 % 1014,6 hPa 0,0 l/m 15,1 km/h (3 Bft) NW 325 5 min
28.05.2018 12:55 29,0 C 28,8 C 10,8 C 40 % 44 % 1014,6 hPa 0,0 l/m 11,5 km/h (2 Bft) SO 135 3 min
28.05.2018 13:00 29,5 C 28,9 C 10,8 C 40 % 46 % 1014,6 hPa 0,0 l/m 7,9 km/h (2 Bft) S-SO 165 5 min
28.05.2018 13:05 29,6 C 29,1 C 10,8 C 40 % 45 % 1014,5 hPa 0,0 l/m 12,7 km/h (3 Bft) N 0 5 min
28.05.2018 13:10 29,8 C 29,2 C 10,8 C 39 % 47 % 1014,5 hPa 0,0 l/m 8,5 km/h (2 Bft) NO 45 5 min
28.05.2018 13:15 29,8 C 29,3 C 10,8 C 39 % 47 % 1014,5 hPa 0,0 l/m 16,9 km/h (3 Bft) N-NW 335 5 min
28.05.2018 13:20 29,8 C 29,5 C 10,8 C 40 % 47 % 1014,5 hPa 0,0 l/m 10,3 km/h (2 Bft) O 85 6 min
28.05.2018 13:25 29,9 C 29,7 C 10,8 C 40 % 45 % 1015,5 hPa 0,0 l/m 14,5 km/h (3 Bft) N 5 6 min
28.05.2018 13:30 30,1 C 29,8 C 10,8 C 39 % 45 % 1015,5 hPa 0,0 l/m 12,1 km/h (2 Bft) N-NO 15 3 min
28.05.2018 13:35 29,6 C 29,8 C 10,8 C 39 % 44 % 1015,5 hPa 0,0 l/m 13,3 km/h (3 Bft) N 5 7 min
28.05.2018 13:40 29,7 C 29,6 C 10,8 C 39 % 47 % 1014,5 hPa 0,0 l/m 11,5 km/h (2 Bft) N-NO 15 3 min
28.05.2018 13:45 29,8 C 29,8 C 10,8 C 39 % 45 % 1014,5 hPa 0,0 l/m 10,9 km/h (2 Bft) N-NO 15 5 min
28.05.2018 13:50 30,0 C 29,8 C 10,8 C 39 % 42 % 1014,5 hPa 0,0 l/m 13,3 km/h (3 Bft) NW 320 6 min
28.05.2018 13:55 30,3 C 29,9 C 10,8 C 38 % 43 % 1014,5 hPa 0,0 l/m 12,1 km/h (2 Bft) O-SO 115 5 min
28.05.2018 14:00 30,3 C 29,9 C 10,8 C 37 % 43 % 1014,5 hPa 0,0 l/m 12,1 km/h (2 Bft) O-SO 105 5 min
28.05.2018 14:05 30,4 C 30,0 C 10,8 C 38 % 43 % 1014,5 hPa 0,0 l/m 15,1 km/h (3 Bft) N 355 5 min
28.05.2018 14:10 30,4 C 30,0 C 10,8 C 37 % 42 % 1014,5 hPa 0,0 l/m 10,9 km/h (2 Bft) O-NO 70 5 min
28.05.2018 14:15 30,2 C 30,1 C 10,8 C 37 % 42 % 1014,5 hPa 0,0 l/m 12,1 km/h (2 Bft) N-NO 15 6 min
28.05.2018 14:20 30,3 C 30,3 C 10,8 C 38 % 43 % 1014,5 hPa 0,0 l/m 5,4 km/h (2 Bft) O-NO 65 5 min
28.05.2018 14:25 30,5 C 30,3 C 10,8 C 39 % 43 % 1014,5 hPa 0,0 l/m 7,3 km/h (2 Bft) NW 325 5 min
28.05.2018 14:30 30,9 C 30,3 C 10,8 C 38 % 44 % 1014,5 hPa 0,0 l/m 3,6 km/h (1 Bft) W 265 5 min
28.05.2018 14:35 31,2 C 30,4 C 10,8 C 38 % 42 % 1014,5 hPa 0,0 l/m 10,3 km/h (2 Bft) S-SW 210 5 min
28.05.2018 14:40 30,8 C 30,4 C 10,8 C 37 % 42 % 1014,5 hPa 0,0 l/m 14,5 km/h (3 Bft) O-SO 115 5 min
28.05.2018 14:45 31,0 C 30,5 C 10,8 C 37 % 42 % 1014,5 hPa 0,0 l/m 9,7 km/h (2 Bft) O-SO 120 4 min
28.05.2018 14:50 30,3 C 30,6 C 10,8 C 38 % 42 % 1014,5 hPa 0,0 l/m 11,5 km/h (2 Bft) O-SO 120 6 min
28.05.2018 14:55 30,6 C 30,6 C 10,8 C 37 % 42 % 1013,5 hPa 0,0 l/m 7,9 km/h (2 Bft) W-NW 295 4 min
28.05.2018 15:00 30,4 C 30,7 C 10,8 C 38 % 42 % 1013,5 hPa 0,0 l/m 14,5 km/h (3 Bft) S 185 6 min
28.05.2018 15:05 30,8 C 30,6 C 10,8 C 37 % 42 % 1013,5 hPa 0,0 l/m 13,3 km/h (3 Bft) O-NO 70 5 min
28.05.2018 15:10 31,3 C 30,6 C 10,8 C 36 % 42 % 1013,5 hPa 0,0 l/m 10,3 km/h (2 Bft) SW 215 5 min
28.05.2018 15:15 31,1 C 30,7 C 10,8 C 36 % 43 % 1013,5 hPa 0,0 l/m 7,3 km/h (2 Bft) NW 310 5 min
28.05.2018 15:20 31,0 C 30,7 C 10,8 C 39 % 46 % 1013,5 hPa 0,0 l/m 8,5 km/h (2 Bft) W 275 5 min
28.05.2018 15:25 31,1 C 30,5 C 10,8 C 39 % 44 % 1014,5 hPa 0,0 l/m 12,1 km/h (2 Bft) W 275 5 min
28.05.2018 15:30 31,1 C 30,4 C 10,8 C 39 % 44 % 1014,5 hPa 0,0 l/m 14,5 km/h (3 Bft) W-NW 295 5 min
28.05.2018 15:35 31,1 C 30,3 C 10,8 C 38 % 43 % 1014,5 hPa 0,0 l/m 11,5 km/h (2 Bft) W-NW 295 5 min
28.05.2018 15:40 30,5 C 30,2 C 10,8 C 41 % 45 % 1013,5 hPa 0,0 l/m 12,1 km/h (2 Bft) W-NW 290 5 min
28.05.2018 15:45 30,2 C 30,0 C 10,8 C 41 % 47 % 1013,5 hPa 0,0 l/m 13,3 km/h (3 Bft) NW 310 5 min
28.05.2018 15:50 30,8 C 30,1 C 10,8 C 40 % 46 % 1013,5 hPa 0,0 l/m 12,7 km/h (3 Bft) W 270 5 min
28.05.2018 15:55 31,0 C 30,4 C 10,8 C 40 % 46 % 1013,5 hPa 0,0 l/m 10,3 km/h (2 Bft) NW 310 5 min
28.05.2018 16:00 30,8 C 30,3 C 10,8 C 40 % 46 % 1013,5 hPa 0,0 l/m 12,7 km/h (3 Bft) W 275 5 min
28.05.2018 16:05 31,0 C 30,4 C 10,8 C 39 % 45 % 1013,5 hPa 0,0 l/m 9,7 km/h (2 Bft) N-NW 345 3 min
28.05.2018 16:10 30,9 C 30,6 C 10,8 C 39 % 46 % 1013,5 hPa 0,0 l/m 12,1 km/h (2 Bft) W 270 7 min
28.05.2018 16:15 31,3 C 30,6 C 10,8 C 39 % 45 % 1013,5 hPa 0,0 l/m 13,3 km/h (3 Bft) N 10 6 min
28.05.2018 16:20 30,7 C 30,7 C 10,8 C 40 % 45 % 1013,5 hPa 0,0 l/m 15,7 km/h (3 Bft) NW 325 4 min
28.05.2018 16:25 31,3 C 30,7 C 10,8 C 40 % 45 % 1013,5 hPa 0,0 l/m 8,5 km/h (2 Bft) W-NW 300 3 min
28.05.2018 16:30 30,2 C 30,8 C 10,8 C 40 % 46 % 1013,5 hPa 0,0 l/m 13,3 km/h (3 Bft) N-NO 15 5 min
28.05.2018 16:35 31,0 C 30,8 C 10,8 C 40 % 46 % 1013,5 hPa 0,0 l/m 15,1 km/h (3 Bft) N-NO 25 5 min
28.05.2018 16:40 30,8 C 31,0 C 10,8 C 39 % 44 % 1013,5 hPa 0,0 l/m 18,8 km/h (3 Bft) N-NO 25 5 min
28.05.2018 16:45 31,1 C 31,0 C 10,8 C 37 % 41 % 1013,5 hPa 0,0 l/m 15,7 km/h (3 Bft) N-NW 340 5 min
28.05.2018 16:50 30,6 C 31,0 C 10,8 C 39 % 43 % 1013,5 hPa 0,0 l/m 16,9 km/h (3 Bft) NO 50 6 min
28.05.2018 16:55 31,1 C 31,0 C 10,8 C 38 % 41 % 1012,5 hPa 0,0 l/m 13,3 km/h (3 Bft) N-NO 25 6 min
28.05.2018 17:00 31,1 C 30,9 C 10,8 C 38 % 42 % 1012,5 hPa 0,0 l/m 13,3 km/h (3 Bft) N-NO 25 0 min
28.05.2018 17:05 31,5 C 31,0 C 10,8 C 38 % 43 % 1012,5 hPa 0,0 l/m 13,3 km/h (3 Bft) O-NO 65 10 min
28.05.2018 17:10 31,1 C 31,2 C 10,8 C 38 % 41 % 1012,5 hPa 0,0 l/m 21,2 km/h (4 Bft) N 355 3 min
28.05.2018 17:15 30,3 C 31,0 C 10,8 C 38 % 41 % 1012,5 hPa 0,0 l/m 16,3 km/h (3 Bft) N-NO 20 8 min
28.05.2018 17:20 30,3 C 30,7 C 10,8 C 38 % 41 % 1012,5 hPa 0,0 l/m 12,7 km/h (3 Bft) N-NO 15 3 min
28.05.2018 17:25 30,3 C 30,5 C 10,8 C 40 % 43 % 1012,5 hPa 0,0 l/m 9,7 km/h (2 Bft) N-NO 15 5 min
28.05.2018 17:30 30,2 C 30,3 C 10,8 C 40 % 43 % 1012,5 hPa 0,0 l/m 20,0 km/h (4 Bft) N-NO 25 4 min
28.05.2018 17:35 30,2 C 30,2 C 10,8 C 39 % 43 % 1012,5 hPa 0,0 l/m 9,1 km/h (2 Bft) S-SO 150 5 min
28.05.2018 17:40 30,7 C 30,4 C 10,8 C 38 % 43 % 1012,5 hPa 0,0 l/m 9,1 km/h (2 Bft) SO 130 5 min
28.05.2018 17:45 30,6 C 30,3 C 10,8 C 39 % 43 % 1012,5 hPa 0,0 l/m 12,1 km/h (2 Bft) O-SO 110 4 min
28.05.2018 17:50 30,0 C 30,2 C 10,8 C 39 % 42 % 1012,5 hPa 0,0 l/m 15,7 km/h (3 Bft) O 85 5 min
28.05.2018 17:55 29,9 C 30,2 C 10,8 C 39 % 42 % 1012,5 hPa 0,0 l/m 16,3 km/h (3 Bft) N 0 3 min
28.05.2018 18:00 30,0 C 30,2 C 10,8 C 39 % 43 % 1012,5 hPa 0,0 l/m 14,5 km/h (3 Bft) N 355 5 min
28.05.2018 18:05 30,1 C 30,3 C 10,8 C 39 % 42 % 1012,5 hPa 0,0 l/m 12,1 km/h (2 Bft) O-NO 70 5 min
28.05.2018 18:10 30,4 C 30,4 C 10,8 C 39 % 44 % 1011,5 hPa 0,0 l/m 11,5 km/h (2 Bft) O 85 5 min
28.05.2018 18:15 30,6 C 30,3 C 10,8 C 39 % 44 % 1011,5 hPa 0,0 l/m 14,5 km/h (3 Bft) W-SW 240 3 min
28.05.2018 18:20 31,1 C 30,6 C 10,8 C 38 % 43 % 1011,5 hPa 0,0 l/m 12,1 km/h (2 Bft) N-NO 30 5 min
28.05.2018 18:25 31,2 C 30,8 C 10,8 C 39 % 43 % 1012,5 hPa 0,0 l/m 12,7 km/h (3 Bft) SW 220 5 min
28.05.2018 18:30 30,4 C 30,8 C 10,8 C 39 % 42 % 1012,5 hPa 0,0 l/m 13,3 km/h (3 Bft) N-NO 20 6 min
28.05.2018 18:35 30,4 C 30,5 C 10,8 C 39 % 43 % 1012,5 hPa 0,0 l/m 12,1 km/h (2 Bft) N-NO 15 3 min
28.05.2018 18:40 30,3 C 30,4 C 10,8 C 39 % 43 % 1011,5 hPa 0,0 l/m 11,5 km/h (2 Bft) N-NO 15 3 min
28.05.2018 18:45 30,6 C 30,4 C 10,8 C 40 % 44 % 1011,5 hPa 0,0 l/m 4,8 km/h (1 Bft) O 85 3 min
28.05.2018 18:50 30,7 C 30,3 C 10,8 C 39 % 43 % 1011,5 hPa 0,0 l/m 7,3 km/h (2 Bft) N 350 5 min
28.05.2018 18:55 30,6 C 30,4 C 10,8 C 40 % 44 % 1012,5 hPa 0,0 l/m 10,9 km/h (2 Bft) N-NO 25 4 min
28.05.2018 19:00 30,4 C 30,5 C 10,8 C 39 % 43 % 1012,5 hPa 0,0 l/m 16,3 km/h (3 Bft) NO 50 5 min
28.05.2018 19:05 30,2 C 30,3 C 10,8 C 40 % 44 % 1012,5 hPa 0,0 l/m 7,9 km/h (2 Bft) O 95 1 min
28.05.2018 19:10 29,9 C 30,0 C 10,8 C 40 % 44 % 1012,5 hPa 0,0 l/m 12,7 km/h (3 Bft) O-NO 60 0 min
28.05.2018 19:15 29,9 C 29,9 C 10,8 C 40 % 45 % 1012,5 hPa 0,0 l/m 8,5 km/h (2 Bft) O 80 0 min
28.05.2018 19:20 29,5 C 29,6 C 10,8 C 41 % 45 % 1012,5 hPa 0,0 l/m 9,7 km/h (2 Bft) NO 45 0 min
28.05.2018 19:25 29,2 C 29,4 C 10,8 C 42 % 46 % 1012,5 hPa 0,0 l/m 10,9 km/h (2 Bft) SO 140 0 min
28.05.2018 19:30 29,1 C 29,2 C 10,8 C 41 % 45 % 1012,5 hPa 0,0 l/m 14,5 km/h (3 Bft) O-SO 115 0 min
28.05.2018 19:35 29,0 C 29,1 C 10,8 C 42 % 47 % 1012,5 hPa 0,0 l/m 10,9 km/h (2 Bft) O-SO 105 0 min
28.05.2018 19:40 28,7 C 29,0 C 10,8 C 43 % 47 % 1012,5 hPa 0,0 l/m 9,7 km/h (2 Bft) O-SO 110 0 min
28.05.2018 19:45 28,5 C 28,7 C 10,8 C 43 % 48 % 1012,5 hPa 0,0 l/m 9,7 km/h (2 Bft) S 175 0 min
28.05.2018 19:50 28,3 C 28,5 C 10,8 C 44 % 49 % 1012,5 hPa 0,0 l/m 11,5 km/h (2 Bft) N-NO 30 0 min
28.05.2018 19:55 28,3 C 28,4 C 10,8 C 44 % 49 % 1012,6 hPa 0,0 l/m 7,9 km/h (2 Bft) NO 50 0 min
28.05.2018 20:00 28,3 C 28,4 C 10,8 C 43 % 49 % 1012,6 hPa 0,0 l/m 12,1 km/h (2 Bft) O-NO 75 0 min
28.05.2018 20:05 28,3 C 28,3 C 10,8 C 43 % 48 % 1012,6 hPa 0,0 l/m 9,7 km/h (2 Bft) S-SO 165 0 min
28.05.2018 20:10 28,3 C 28,3 C 10,8 C 43 % 48 % 1012,6 hPa 0,0 l/m 6,7 km/h (2 Bft) N-NO 15 0 min
28.05.2018 20:15 28,3 C 28,2 C 10,8 C 43 % 48 % 1012,6 hPa 0,0 l/m 9,1 km/h (2 Bft) O 95 0 min
28.05.2018 20:20 28,3 C 28,3 C 10,8 C 42 % 48 % 1012,6 hPa 0,0 l/m 15,7 km/h (3 Bft) N-NO 15 0 min
28.05.2018 20:25 28,2 C 28,2 C 10,8 C 43 % 49 % 1012,6 hPa 0,0 l/m 3,6 km/h (1 Bft) N-NO 25 0 min
28.05.2018 20:30 28,1 C 28,1 C 10,8 C 43 % 48 % 1012,6 hPa 0,0 l/m 13,3 km/h (3 Bft) N 355 0 min
28.05.2018 20:35 28,0 C 28,1 C 10,8 C 43 % 48 % 1012,6 hPa 0,0 l/m 8,5 km/h (2 Bft) NO 35 0 min
28.05.2018 20:40 28,0 C 28,1 C 10,8 C 43 % 48 % 1012,6 hPa 0,0 l/m 16,3 km/h (3 Bft) NO 40 0 min
28.05.2018 20:45 27,9 C 28,1 C 10,8 C 43 % 48 % 1012,6 hPa 0,0 l/m 10,9 km/h (2 Bft) N-NO 30 0 min
28.05.2018 20:50 27,9 C 28,0 C 10,8 C 43 % 48 % 1012,6 hPa 0,0 l/m 10,3 km/h (2 Bft) N 10 0 min
28.05.2018 20:55 27,8 C 28,0 C 10,8 C 43 % 48 % 1012,6 hPa 0,0 l/m 9,7 km/h (2 Bft) N-NO 25 0 min
28.05.2018 21:00 27,7 C 27,9 C 10,8 C 43 % 48 % 1012,6 hPa 0,0 l/m 10,9 km/h (2 Bft) NO 45 0 min
28.05.2018 21:05 27,5 C 27,8 C 10,8 C 44 % 47 % 1012,6 hPa 0,0 l/m 10,9 km/h (2 Bft) N-NO 15 0 min
28.05.2018 21:10 27,4 C 27,7 C 10,8 C 44 % 48 % 1012,6 hPa 0,0 l/m 11,5 km/h (2 Bft) N-NO 25 0 min
28.05.2018 21:15 27,3 C 27,6 C 10,8 C 44 % 49 % 1012,6 hPa 0,0 l/m 13,3 km/h (3 Bft) NO 35 0 min
28.05.2018 21:20 27,3 C 27,6 C 10,8 C 44 % 49 % 1012,6 hPa 0,0 l/m 13,9 km/h (3 Bft) N 10 0 min
28.05.2018 21:25 27,3 C 27,5 C 10,8 C 44 % 49 % 1012,6 hPa 0,0 l/m 12,1 km/h (2 Bft) NO 40 0 min
28.05.2018 21:30 27,2 C 27,5 C 10,8 C 45 % 49 % 1012,6 hPa 0,0 l/m 15,7 km/h (3 Bft) NO 40 0 min
28.05.2018 21:35 27,1 C 27,4 C 10,8 C 45 % 49 % 1012,6 hPa 0,0 l/m 11,5 km/h (2 Bft) N-NO 25 0 min
28.05.2018 21:40 27,1 C 27,4 C 10,8 C 45 % 49 % 1012,6 hPa 0,0 l/m 11,5 km/h (2 Bft) N 5 0 min
28.05.2018 21:45 27,0 C 27,3 C 10,8 C 45 % 49 % 1012,6 hPa 0,0 l/m 14,5 km/h (3 Bft) N 5 0 min
28.05.2018 21:50 26,9 C 27,2 C 10,8 C 45 % 50 % 1012,6 hPa 0,0 l/m 9,7 km/h (2 Bft) N 350 0 min
28.05.2018 21:55 26,9 C 27,1 C 10,8 C 45 % 50 % 1012,6 hPa 0,0 l/m 10,9 km/h (2 Bft) N 5 0 min
28.05.2018 22:00 26,9 C 27,1 C 10,8 C 45 % 50 % 1012,6 hPa 0,0 l/m 15,1 km/h (3 Bft) NW 320 0 min
28.05.2018 22:05 26,8 C 27,0 C 10,8 C 46 % 50 % 1012,6 hPa 0,0 l/m 15,1 km/h (3 Bft) N 0 0 min
28.05.2018 22:10 26,7 C 27,0 C 10,8 C 46 % 50 % 1012,6 hPa 0,0 l/m 14,5 km/h (3 Bft) N 0 0 min
28.05.2018 22:15 26,7 C 26,9 C 10,8 C 46 % 51 % 1012,6 hPa 0,0 l/m 16,3 km/h (3 Bft) N 0 0 min
28.05.2018 22:20 26,5 C 26,8 C 10,8 C 47 % 51 % 1012,6 hPa 0,0 l/m 10,9 km/h (2 Bft) N-NO 30 0 min
28.05.2018 22:25 26,4 C 26,8 C 10,8 C 47 % 51 % 1012,6 hPa 0,0 l/m 13,3 km/h (3 Bft) N-NO 30 0 min
28.05.2018 22:30 26,3 C 26,6 C 10,8 C 47 % 52 % 1012,6 hPa 0,0 l/m 13,9 km/h (3 Bft) N-NO 25 0 min
28.05.2018 22:35 26,3 C 26,5 C 10,8 C 47 % 52 % 1012,6 hPa 0,0 l/m 12,1 km/h (2 Bft) N-NO 20 0 min
28.05.2018 22:40 26,2 C 26,4 C 10,8 C 48 % 52 % 1012,6 hPa 0,0 l/m 11,5 km/h (2 Bft) N-NO 30 0 min
28.05.2018 22:45 26,1 C 26,4 C 10,8 C 48 % 52 % 1012,6 hPa 0,0 l/m 11,5 km/h (2 Bft) N-NO 15 0 min
28.05.2018 22:50 26,1 C 26,3 C 10,8 C 48 % 52 % 1012,6 hPa 0,0 l/m 11,5 km/h (2 Bft) N-NO 15 0 min
28.05.2018 22:55 25,9 C 26,2 C 10,8 C 48 % 53 % 1012,6 hPa 0,0 l/m 11,5 km/h (2 Bft) O-NO 65 0 min
28.05.2018 23:00 25,9 C 26,2 C 10,8 C 49 % 53 % 1012,6 hPa 0,0 l/m 12,1 km/h (2 Bft) NO 40 0 min
28.05.2018 23:05 25,8 C 26,1 C 10,8 C 49 % 53 % 1012,6 hPa 0,0 l/m 13,9 km/h (3 Bft) NO 45 0 min
28.05.2018 23:10 25,7 C 26,0 C 10,8 C 49 % 54 % 1012,6 hPa 0,0 l/m 12,1 km/h (2 Bft) N 355 0 min
28.05.2018 23:15 25,7 C 25,9 C 10,8 C 49 % 55 % 1012,6 hPa 0,0 l/m 10,9 km/h (2 Bft) N-NW 340 0 min
28.05.2018 23:20 25,7 C 25,8 C 10,8 C 49 % 55 % 1012,6 hPa 0,0 l/m 16,3 km/h (3 Bft) N 355 0 min
28.05.2018 23:25 25,6 C 25,8 C 10,8 C 50 % 55 % 1012,6 hPa 0,0 l/m 13,3 km/h (3 Bft) NO 35 0 min
28.05.2018 23:30 25,5 C 25,7 C 10,8 C 50 % 55 % 1012,6 hPa 0,0 l/m 15,1 km/h (3 Bft) N 0 0 min
28.05.2018 23:35 25,5 C 25,6 C 10,8 C 50 % 56 % 1012,6 hPa 0,0 l/m 12,7 km/h (3 Bft) N-NO 30 0 min
28.05.2018 23:40 25,4 C 25,6 C 10,8 C 50 % 56 % 1012,6 hPa 0,0 l/m 19,4 km/h (3 Bft) N 350 0 min
28.05.2018 23:45 25,3 C 25,6 C 10,8 C 51 % 56 % 1012,6 hPa 0,0 l/m 11,5 km/h (2 Bft) W-NW 290 0 min
28.05.2018 23:50 25,3 C 25,5 C 10,8 C 52 % 57 % 1012,6 hPa 0,0 l/m 10,3 km/h (2 Bft) NO 40 0 min
28.05.2018 23:55 25,3 C 25,4 C 10,8 C 52 % 58 % 1012,6 hPa 0,0 l/m 21,8 km/h (4 Bft) O 95 0 min
_ Min-Zeit 05:25 05:55 00:00 15:10 16:45 18:20 - 00:00 - - -
Minimum _ 16,2 C 15,9 C 10,8 C 36 % 41 % 1011,5 hPa - 0,0 km/h (0 Bft) - - -
_ Max-Zeit 17:05 17:10 00:00 05:05 06:10 07:40 00:00 23:55 - - 07:45
Maximum _ 31,5 C 31,2 C 10,8 C 87 % 91 % 1015,7 hPa 0,0 l/m 21,8 km/h
O (4 Bft)
- - 42 min
Durchschnitt _ 24,2 C 24,1 C 10,8 C 59 % 64 % 1014,1 hPa #0,0 l/m 7,8 km/h (2 Bft) N-NO - #11:16 h